Tracking 29892 objects as of 21-Nov-2024
HD Live streaming from Space Station
objects crossing your sky now

BREEZE-KM R/B

Track BREEZE-KM R/B now!
10-day predictions


NORAD ID: 40556
Int'l Code: 2015-020E
Perigee: 1,180.9 km
Apogee: 1,511.9 km
Inclination: 82.5 °
Period: 112.5 minutes
Semi major axis: 7717 km
RCS: Unknown
Launch date: March 31, 2015
Source: Commonwealth of Independent States (former USSR) (CIS)
Launch site: PLESETSK MISSILE AND SPACE COMPLEX (PKMTR)

Note: This is a ROCKET BODY
Your satellite tracking list
Your tracking list is empty




NASA's NSSDC Master Catalog

Two Line Element Set (TLE):
1 40556U 15020E   24325.48058269  .00000034  00000-0  98863-4 0  9991
2 40556  82.4911 229.5066 0214393 310.9116  47.3590 12.80548680450728
Source of the keplerian elements: AFSPC